SQ6RR-12 Weather Reports


Display with metric or nautical units.
time (UTC)temp
F
wind
direction
speed
MPH
gust
MPH
rain 1hr
in
rain 24hr
in
rain mn
in
humidity
%
barometer
mb
20260905091616 66 0 0.0 0.0 0.00 0.00 0.00 82 1019.1
20260905091142 68 0 0.0 0.0 0.00 0.00 0.00 78 1019.0
20260905090704 69 0 0.0 0.0 0.00 0.00 0.00 79 1019.0
20260905090234 69 0 0.0 0.0 0.00 0.00 0.00 78 1019.1
20260905085809 68 0 0.0 0.0 0.00 0.00 0.00 80 1019.0
20260905085349 67 0 0.0 0.0 0.00 0.00 0.00 81 1018.9
20260905084915 67 0 0.0 0.0 0.00 0.00 0.00 84 1018.9
20260905084432 66 0 0.0 0.0 0.00 0.00 0.00 90 1018.9
20260905084003 66 0 0.0 0.0 0.00 0.00 0.00 87 1019.0
20260905083525 64 0 0.0 0.0 0.00 0.00 0.00 96 1018.9
20260905083042 64 0 0.0 0.0 0.00 0.00 0.00 95 1018.8
20260905082610 64 0 0.0 0.0 0.00 0.00 0.00 97 1018.8
20260905082150 65 0 0.0 0.0 0.00 0.00 0.00 96 1018.7
20260905081712 65 0 0.0 0.0 0.00 0.00 0.00 95 1018.6
20260905081241 64 0 0.0 0.0 0.00 0.00 0.00 90 1018.5
20260905080804 64 0 0.0 0.0 0.00 0.00 0.00 84 1018.6
20260905080332 64 0 0.0 0.0 0.00 0.00 0.00 85 1018.5
20260905075848 64 0 0.0 0.0 0.00 0.00 0.00 90 1018.4
20260905075427 66 0 0.0 0.0 0.00 0.00 0.00 82 1018.4
20260905075008 65 0 0.0 0.0 0.00 0.00 0.00 85 1018.4
20260905074535 65 0 0.0 0.0 0.00 0.00 0.00 86 1018.5
20260905074105 65 0 0.0 0.0 0.00 0.00 0.00 84 1018.4
20260905073637 64 0 0.0 0.0 0.00 0.00 0.00 88 1018.5
20260905073219 63 0 0.0 0.0 0.00 0.00 0.00 91 1018.5
20260905072757 62 0 0.0 0.0 0.00 0.00 0.00 98 1018.4
20260905072346 62 0 0.0 0.0 0.00 0.00 0.00 99 1018.4
20260905071932 62 0 0.0 0.0 0.00 0.00 0.00 10 1018.4
20260905071500 62 0 0.0 0.0 0.00 0.00 0.00 10 1018.2
20260905071017 63 0 0.0 0.0 0.00 0.00 0.00 10 1018.2
20260905070541 63 0 0.0 0.0 0.00 0.00 0.00 10 1018.1
20260905070111 63 0 0.0 0.0 0.00 0.00 0.00 10 1018.2
20260905065636 62 0 0.0 0.0 0.00 0.00 0.00 10 1018.1
20260905065150 62 0 0.0 0.0 0.00 0.00 0.00 10 1018.2
20260905064717 62 0 0.0 0.0 0.00 0.00 0.00 10 1018.2
20260905064227 61 0 0.0 0.0 0.00 0.00 0.00 10 1018.0
20260905063802 60 0 0.0 0.0 0.00 0.00 0.00 10 1018.1
20260905063331 60 0 0.0 0.0 0.00 0.00 0.00 10 1018.1
20260905062912 60 0 0.0 0.0 0.00 0.00 0.00 10 1018.1
20260905062505 60 0 0.0 0.0 0.00 0.00 0.00 10 1018.1
20260905062030 60 0 0.0 0.0 0.00 0.00 0.00 10 1018.0
20260905061545 59 0 0.0 0.0 0.00 0.00 0.00 10 1017.9
20260905061105 59 0 0.0 0.0 0.00 0.00 0.00 10 1017.9
20260905060645 60 0 0.0 0.0 0.00 0.00 0.00 10 1017.8
20260905060207 59 0 0.0 0.0 0.00 0.00 0.00 10 1017.8
20260905055737 59 0 0.0 0.0 0.00 0.00 0.00 10 1017.8
20260905055317 58 0 0.0 0.0 0.00 0.00 0.00 10 1017.8
20260905054848 57 0 0.0 0.0 0.00 0.00 0.00 10 1017.7
20260905054412 57 0 0.0 0.0 0.00 0.00 0.00 10 1017.6
20260905054000 57 0 0.0 0.0 0.00 0.00 0.00 10 1017.5
20260905053518 57 0 0.0 0.0 0.00 0.00 0.00 10 1017.5
20260905053047 56 0 0.0 0.0 0.00 0.00 0.00 10 1017.5
20260905052625 56 0 0.0 0.0 0.00 0.00 0.00 10 1017.4
20260905052157 57 0 0.0 0.0 0.00 0.00 0.00 10 1017.4
20260905051712 58 0 0.0 0.0 0.00 0.00 0.00 10 1017.4
20260905051239 56 0 0.0 0.0 0.00 0.00 0.00 10 1017.1
20260905050822 56 0 0.0 0.0 0.00 0.00 0.00 10 1017.1
20260905050402 56 0 0.0 0.0 0.00 0.00 0.00 10 1017.1
20260905045938 56 0 0.0 0.0 0.00 0.00 0.00 10 1017.1
20260905045454 55 0 0.0 0.0 0.00 0.00 0.00 10 1017.0
20260905045032 55 0 0.0 0.0 0.00 0.00 0.00 10 1017.1
20260905044618 55 0 0.0 0.0 0.00 0.00 0.00 10 1017.0
20260905044136 56 0 0.0 0.0 0.00 0.00 0.00 10 1017.0
20260905043716 56 0 0.0 0.0 0.00 0.00 0.00 10 1017.0
20260905043247 56 0 0.0 0.0 0.00 0.00 0.00 10 1016.9
20260905042822 55 0 0.0 0.0 0.00 0.00 0.00 10 1016.9
20260905042342 55 0 0.0 0.0 0.00 0.00 0.00 10 1016.7
20260905041925 56 0 0.0 0.0 0.00 0.00 0.00 10 1016.8
20260905041452 56 0 0.0 0.0 0.00 0.00 0.00 10 1016.7
20260905041012 56 0 0.0 0.0 0.00 0.00 0.00 10 1016.6
20260905040520 55 0 0.0 0.0 0.00 0.00 0.00 10 1016.6
20260905040040 55 0 0.0 0.0 0.00 0.00 0.00 10 1016.8
20260905035607 56 0 0.0 0.0 0.00 0.00 0.00 10 1016.6
20260905035146 56 0 0.0 0.0 0.00 0.00 0.00 10 1016.6
20260905034707 57 0 0.0 0.0 0.00 0.00 0.00 10 1016.5
20260905034233 55 0 0.0 0.0 0.00 0.00 0.00 10 1016.5
20260905033757 55 0 0.0 0.0 0.00 0.00 0.00 10 1016.4
20260905033331 56 0 0.0 0.0 0.00 0.00 0.00 10 1016.5
20260905032857 56 0 0.0 0.0 0.00 0.00 0.00 10 1016.3
20260905032427 56 0 0.0 0.0 0.00 0.00 0.00 10 1016.5
20260905031935 57 0 0.0 0.0 0.00 0.00 0.00 10 1016.6
20260905031442 57 0 0.0 0.0 0.00 0.00 0.00 10 1016.4
20260905031022 57 0 0.0 0.0 0.00 0.00 0.00 10 1016.3
20260905030552 57 0 0.0 0.0 0.00 0.00 0.00 10 1016.0
20260905030132 57 0 0.0 0.0 0.00 0.00 0.00 10 1015.5
20260905025703 57 0 0.0 0.0 0.00 0.00 0.00 10 1016.0
20260905025306 57 0 0.0 0.0 0.00 0.00 0.00 10 1016.0
20260905024826 57 0 0.0 0.0 0.00 0.00 0.00 10 1016.1
20260905024352 58 0 0.0 0.0 0.00 0.00 0.00 10 1016.0
20260905023932 57 0 0.0 0.0 0.00 0.00 0.00 10 1015.9
20260905023502 57 0 0.0 0.0 0.00 0.00 0.00 10 1015.2
20260905023055 57 0 0.0 0.0 0.00 0.00 0.00 10 1015.5
20260905022641 57 0 0.0 0.0 0.00 0.00 0.00 10 1015.7
20260905022212 57 0 0.0 0.0 0.00 0.00 0.00 10 1015.7
20260905021740 56 0 0.0 0.0 0.00 0.00 0.00 10 1015.6
20260905021307 57 0 0.0 0.0 0.00 0.00 0.00 10 1015.5
20260905020832 57 0 0.0 0.0 0.00 0.00 0.00 10 1015.1
20260905020402 57 0 0.0 0.0 0.00 0.00 0.00 10 1014.7
20260905015946 57 0 0.0 0.0 0.00 0.00 0.00 10 1015.1
20260905015517 59 0 0.0 0.0 0.00 0.00 0.00 10 1015.0
20260905015047 59 0 0.0 0.0 0.00 0.00 0.00 10 1015.1
20260905014552 60 0 0.0 0.0 0.00 0.00 0.00 10 1015.2
20260905014125 60 0 0.0 0.0 0.00 0.00 0.00 10 1015.1
20260905013707 60 0 0.0 0.0 0.00 0.00 0.00 10 1015.4
20260905013247 60 0 0.0 0.0 0.00 0.00 0.00 10 1015.1
20260905012812 61 0 0.0 0.0 0.00 0.00 0.00 10 1015.4
20260905012346 60 0 0.0 0.0 0.00 0.00 0.00 10 1015.1
20260905011922 59 0 0.0 0.0 0.00 0.00 0.00 10 1015.3
20260905011457 60 0 0.0 0.0 0.00 0.00 0.00 10 1015.1
20260905011037 58 0 0.0 0.0 0.00 0.00 0.00 10 1015.1
20260905010607 59 0 0.0 0.0 0.00 0.00 0.00 10 1015.5
20260905010147 58 0 0.0 0.0 0.00 0.00 0.00 10 1015.4
20260905005737 58 0 0.0 0.0 0.00 0.00 0.00 10 1015.1
20260905005306 58 0 0.0 0.0 0.00 0.00 0.00 10 1015.3
20260905004837 58 0 0.0 0.0 0.00 0.00 0.00 10 1015.2
20260905004402 59 0 0.0 0.0 0.00 0.00 0.00 10 1015.4
20260905003932 59 0 0.0 0.0 0.00 0.00 0.00 10 1015.4
20260905003447 60 0 0.0 0.0 0.00 0.00 0.00 10 1015.5
20260905003026 60 0 0.0 0.0 0.00 0.00 0.00 10 1015.6
20260905002552 61 0 0.0 0.0 0.00 0.00 0.00 10 1015.6
20260905002132 61 0 0.0 0.0 0.00 0.00 0.00 10 1015.5
20260905001721 61 0 0.0 0.0 0.00 0.00 0.00 10 1015.4
20260905001302 61 0 0.0 0.0 0.00 0.00 0.00 10 1015.6
20260905000827 61 0 0.0 0.0 0.00 0.00 0.00 10 1015.0
20260905000355 61 0 0.0 0.0 0.00 0.00 0.00 10 1015.0
20260904235922 61 0 0.0 0.0 0.00 0.00 0.00 10 1015.2
20260904235457 62 0 0.0 0.0 0.00 0.00 0.00 10 1015.4
20260904235026 60 0 0.0 0.0 0.00 0.00 0.00 10 1015.0
20260904234547 59 0 0.0 0.0 0.00 0.00 0.00 10 1014.6
20260904234117 59 0 0.0 0.0 0.00 0.00 0.00 10 1014.3
20260904233645 59 0 0.0 0.0 0.00 0.00 0.00 10 1014.1
20260904233215 60 0 0.0 0.0 0.00 0.00 0.00 10 1014.3
20260904232742 60 0 0.0 0.0 0.00 0.00 0.00 10 1014.3
20260904232313 60 0 0.0 0.0 0.00 0.00 0.00 10 1014.5
20260904231851 61 0 0.0 0.0 0.00 0.00 0.00 10 1014.3
20260904231427 62 0 0.0 0.0 0.00 0.00 0.00 10 1014.3
20260904230953 62 0 0.0 0.0 0.00 0.00 0.00 10 1014.6
20260904230527 62 0 0.0 0.0 0.00 0.00 0.00 10 1014.1
20260904230122 63 0 0.0 0.0 0.00 0.00 0.00 10 1013.9
20260904225702 62 0 0.0 0.0 0.00 0.00 0.00 10 1013.6
20260904225217 62 0 0.0 0.0 0.00 0.00 0.00 10 1013.5
20260904224737 62 0 0.0 0.0 0.00 0.00 0.00 10 1013.9
20260904224312 62 0 0.0 0.0 0.00 0.00 0.00 10 1014.0
20260904223827 62 0 0.0 0.0 0.00 0.00 0.00 10 1014.3
20260904223342 62 0 0.0 0.0 0.00 0.00 0.00 10 1014.0
20260904222927 62 0 0.0 0.0 0.00 0.00 0.00 10 1014.0
20260904222449 62 0 0.0 0.0 0.00 0.00 0.00 10 1014.1
20260904222032 63 0 0.0 0.0 0.00 0.00 0.00 10 1014.1
20260904221557 63 0 0.0 0.0 0.00 0.00 0.00 10 1013.9
20260904221112 64 0 0.0 0.0 0.00 0.00 0.00 10 1013.8
20260904220702 64 0 0.0 0.0 0.00 0.00 0.00 10 1014.0
20260904220227 65 0 0.0 0.0 0.00 0.00 0.00 10 1014.2
20260904215734 65 0 0.0 0.0 0.00 0.00 0.00 10 1013.7
20260904215316 65 0 0.0 0.0 0.00 0.00 0.00 10 1013.6
20260904214839 64 0 0.0 0.0 0.00 0.00 0.00 10 1013.6
20260904214406 65 0 0.0 0.0 0.00 0.00 0.00 10 1013.4
20260904213935 64 0 0.0 0.0 0.00 0.00 0.00 10 1013.6
20260904213504 64 0 0.0 0.0 0.00 0.00 0.00 10 1013.4
20260904213027 64 0 0.0 0.0 0.00 0.00 0.00 10 1013.5
20260904212552 63 0 0.0 0.0 0.00 0.00 0.00 10 1013.4
20260904212124 64 0 0.0 0.0 0.00 0.00 0.00 10 1013.7
20260904211717 64 0 0.0 0.0 0.00 0.00 0.00 10 1013.6
20260904211311 63 0 0.0 0.0 0.00 0.00 0.00 10 1013.4
20260904210847 64 0 0.0 0.0 0.00 0.00 0.00 10 1013.4
20260904210427 65 0 0.0 0.0 0.00 0.00 0.00 10 1013.3
20260904210012 64 0 0.0 0.0 0.00 0.00 0.00 10 1013.5
20260904205527 65 0 0.0 0.0 0.00 0.00 0.00 98 1013.3
20260904205106 65 0 0.0 0.0 0.00 0.00 0.00 96 1013.3
20260904204624 66 0 0.0 0.0 0.00 0.00 0.00 95 1013.4
20260904204152 66 0 0.0 0.0 0.00 0.00 0.00 94 1013.4
20260904203707 66 0 0.0 0.0 0.00 0.00 0.00 94 1013.4
20260904203240 67 0 0.0 0.0 0.00 0.00 0.00 93 1013.6
20260904202802 67 0 0.0 0.0 0.00 0.00 0.00 92 1013.5
20260904202341 67 0 0.0 0.0 0.00 0.00 0.00 91 1013.4
20260904201857 67 0 0.0 0.0 0.00 0.00 0.00 90 1013.6
20260904201436 67 0 0.0 0.0 0.00 0.00 0.00 91 1013.5
20260904201003 68 0 0.0 0.0 0.00 0.00 0.00 89 1013.6
20260904200552 68 0 0.0 0.0 0.00 0.00 0.00 88 1013.5
20260904200110 68 0 0.0 0.0 0.00 0.00 0.00 90 1013.4
20260904195646 68 0 0.0 0.0 0.00 0.00 0.00 90 1013.3
20260904195212 69 0 0.0 0.0 0.00 0.00 0.00 88 1013.6
20260904194737 69 0 0.0 0.0 0.00 0.00 0.00 89 1013.6
20260904194311 69 0 0.0 0.0 0.00 0.00 0.00 89 1013.6
20260904193839 69 0 0.0 0.0 0.00 0.00 0.00 89 1013.7
20260904193412 70 0 0.0 0.0 0.00 0.00 0.00 88 1013.5
20260904192937 71 0 0.0 0.0 0.00 0.00 0.00 89 1013.5
20260904192502 70 0 0.0 0.0 0.00 0.00 0.00 91 1013.1
20260904192019 71 0 0.0 0.0 0.00 0.00 0.00 91 1013.2
20260904191604 72 0 0.0 0.0 0.00 0.00 0.00 96 1012.9
20260904191121 73 0 0.0 0.0 0.00 0.00 0.00 97 1012.8
20260904190647 74 0 0.0 0.0 0.00 0.00 0.00 94 1012.6
20260904190220 76 0 0.0 0.0 0.00 0.00 0.00 92 1012.7
20260904185802 75 0 0.0 0.0 0.00 0.00 0.00 93 1011.6
20260904185337 74 0 0.0 0.0 0.00 0.00 0.00 97 1011.9
20260904184927 74 0 0.0 0.0 0.00 0.00 0.00 97 1011.9
20260904184447 74 0 0.0 0.0 0.00 0.00 0.00 95 1011.8
20260904184031 74 0 0.0 0.0 0.00 0.00 0.00 95 1011.7
20260904183616 74 0 0.0 0.0 0.00 0.00 0.00 96 1011.7
20260904183155 73 0 0.0 0.0 0.00 0.00 0.00 98 1011.6
20260904182735 73 0 0.0 0.0 0.00 0.00 0.00 98 1011.4
20260904182307 73 0 0.0 0.0 0.00 0.00 0.00 10 1011.4
20260904181835 73 0 0.0 0.0 0.00 0.00 0.00 10 1011.5
20260904181417 73 0 0.0 0.0 0.00 0.00 0.00 10 1011.4
20260904181003 72 0 0.0 0.0 0.00 0.00 0.00 10 1011.2
20260904180536 72 0 0.0 0.0 0.00 0.00 0.00 10 1011.2
20260904175632 73 0 0.0 0.0 0.00 0.00 0.00 10 1011.0
20260904175201 73 0 0.0 0.0 0.00 0.00 0.00 10 1011.0
20260904174720 73 0 0.0 0.0 0.00 0.00 0.00 10 1011.1
20260904174242 73 0 0.0 0.0 0.00 0.00 0.00 10 1011.1
20260904173812 73 0 0.0 0.0 0.00 0.00 0.00 10 1011.3
20260904173352 73 0 0.0 0.0 0.00 0.00 0.00 10 1011.5
20260904172907 73 0 0.0 0.0 0.00 0.00 0.00 10 1011.6
20260904172435 73 0 0.0 0.0 0.00 0.00 0.00 10 1011.6
20260904172021 73 0 0.0 0.0 0.00 0.00 0.00 10 1011.7
20260904171542 73 0 0.0 0.0 0.00 0.00 0.00 99 1011.7
20260904171114 73 0 0.0 0.0 0.00 0.00 0.00 10 1011.6
20260904170650 73 0 0.0 0.0 0.00 0.00 0.00 10 1011.6
20260904170228 74 0 0.0 0.0 0.00 0.00 0.00 98 1011.7
20260904165756 74 0 0.0 0.0 0.00 0.00 0.00 98 1011.6
20260904165321 74 0 0.0 0.0 0.00 0.00 0.00 98 1011.5
20260904164857 75 0 0.0 0.0 0.00 0.00 0.00 95 1011.6
20260904164420 74 0 0.0 0.0 0.00 0.00 0.00 98 1011.5
20260904164002 74 0 0.0 0.0 0.00 0.00 0.00 10 1011.6
20260904163551 74 0 0.0 0.0 0.00 0.00 0.00 10 1011.7
20260904163125 74 0 0.0 0.0 0.00 0.00 0.00 10 1011.7
20260904162652 74 0 0.0 0.0 0.00 0.00 0.00 10 1011.6
20260904162205 75 0 0.0 0.0 0.00 0.00 0.00 99 1011.6
20260904161749 75 0 0.0 0.0 0.00 0.00 0.00 99 1011.6
20260904161330 75 0 0.0 0.0 0.00 0.00 0.00 98 1011.8
20260904160856 75 0 0.0 0.0 0.00 0.00 0.00 10 1011.7
20260904160431 75 0 0.0 0.0 0.00 0.00 0.00 99 1011.8
20260904160001 75 0 0.0 0.0 0.00 0.00 0.00 97 1011.9
20260904155522 75 0 0.0 0.0 0.00 0.00 0.00 98 1011.9
20260904155109 75 0 0.0 0.0 0.00 0.00 0.00 99 1011.9
20260904154641 75 0 0.0 0.0 0.00 0.00 0.00 97 1011.7
20260904154213 75 0 0.0 0.0 0.00 0.00 0.00 98 1011.8
20260904153800 76 0 0.0 0.0 0.00 0.00 0.00 96 1011.8
20260904153322 75 0 0.0 0.0 0.00 0.00 0.00 10 1011.9
20260904152840 75 0 0.0 0.0 0.00 0.00 0.00 10 1011.9
20260904152422 74 0 0.0 0.0 0.00 0.00 0.00 10 1011.9
20260904151935 75 0 0.0 0.0 0.00 0.00 0.00 10 1011.9
20260904151505 75 0 0.0 0.0 0.00 0.00 0.00 97 1012.0
20260904151036 76 0 0.0 0.0 0.00 0.00 0.00 95 1011.9
20260904150615 76 0 0.0 0.0 0.00 0.00 0.00 96 1011.9
20260904150145 76 0 0.0 0.0 0.00 0.00 0.00 95 1012.0
20260904145715 77 0 0.0 0.0 0.00 0.00 0.00 93 1012.0
20260904145257 77 0 0.0 0.0 0.00 0.00 0.00 93 1012.0
20260904144841 77 0 0.0 0.0 0.00 0.00 0.00 92 1012.0
20260904144410 77 0 0.0 0.0 0.00 0.00 0.00 92 1012.3
20260904143934 77 0 0.0 0.0 0.00 0.00 0.00 93 1012.3
20260904143512 77 0 0.0 0.0 0.00 0.00 0.00 91 1012.5
20260904143049 78 0 0.0 0.0 0.00 0.00 0.00 88 1012.6
20260904142644 78 0 0.0 0.0 0.00 0.00 0.00 89 1012.6
20260904142222 79 0 0.0 0.0 0.00 0.00 0.00 87 1012.8
20260904141744 78 0 0.0 0.0 0.00 0.00 0.00 89 1012.8
20260904141327 78 0 0.0 0.0 0.00 0.00 0.00 90 1012.9
20260904140906 78 0 0.0 0.0 0.00 0.00 0.00 89 1012.9
20260904140447 78 0 0.0 0.0 0.00 0.00 0.00 88 1013.1
20260904140031 77 0 0.0 0.0 0.00 0.00 0.00 92 1013.1
20260904135607 78 0 0.0 0.0 0.00 0.00 0.00 92 1013.1
20260904135147 77 0 0.0 0.0 0.00 0.00 0.00 91 1013.1
20260904134705 78 0 0.0 0.0 0.00 0.00 0.00 90 1013.3
20260904134302 78 0 0.0 0.0 0.00 0.00 0.00 91 1013.3
20260904133836 77 0 0.0 0.0 0.00 0.00 0.00 96 1013.3
20260904133353 77 0 0.0 0.0 0.00 0.00 0.00 93 1013.5
20260904132937 76 0 0.0 0.0 0.00 0.00 0.00 96 1013.7
20260904132512 76 0 0.0 0.0 0.00 0.00 0.00 94 1013.4
20260904132032 76 0 0.0 0.0 0.00 0.00 0.00 98 1013.7
20260904131556 77 0 0.0 0.0 0.00 0.00 0.00 95 1013.9
20260904131128 77 0 0.0 0.0 0.00 0.00 0.00 92 1014.0
20260904130647 77 0 0.0 0.0 0.00 0.00 0.00 92 1013.9
20260904130223 77 0 0.0 0.0 0.00 0.00 0.00 94 1013.9
20260904125802 78 0 0.0 0.0 0.00 0.00 0.00 93 1013.9
20260904125331 78 0 0.0 0.0 0.00 0.00 0.00 92 1014.2
20260904124902 77 0 0.0 0.0 0.00 0.00 0.00 92 1014.2
20260904124432 77 0 0.0 0.0 0.00 0.00 0.00 95 1014.1
20260904124003 76 0 0.0 0.0 0.00 0.00 0.00 98 1014.2
20260904123527 76 0 0.0 0.0 0.00 0.00 0.00 97 1014.2
20260904123101 76 0 0.0 0.0 0.00 0.00 0.00 98 1014.4
20260904122622 76 0 0.0 0.0 0.00 0.00 0.00 98 1014.4
20260904122141 76 0 0.0 0.0 0.00 0.00 0.00 99 1014.6
20260904121722 76 0 0.0 0.0 0.00 0.00 0.00 98 1014.6
20260904121252 77 0 0.0 0.0 0.00 0.00 0.00 96 1014.6
20260904120822 77 0 0.0 0.0 0.00 0.00 0.00 93 1014.4
20260904120357 77 0 0.0 0.0 0.00 0.00 0.00 99 1014.6
20260904115935 76 0 0.0 0.0 0.00 0.00 0.00 10 1014.8
20260904115502 76 0 0.0 0.0 0.00 0.00 0.00 10 1014.6
20260904115026 75 0 0.0 0.0 0.00 0.00 0.00 10 1014.7
20260904114557 73 0 0.0 0.0 0.00 0.00 0.00 10 1015.0
20260904114127 75 0 0.0 0.0 0.00 0.00 0.00 10 1014.9
20260904113707 74 0 0.0 0.0 0.00 0.00 0.00 10 1014.9
20260904113237 74 0 0.0 0.0 0.00 0.00 0.00 10 1014.8
20260904112816 72 0 0.0 0.0 0.00 0.00 0.00 10 1015.1
20260904112401 71 0 0.0 0.0 0.00 0.00 0.00 10 1015.1
20260904111939 72 0 0.0 0.0 0.00 0.00 0.00 10 1015.3
20260904111457 73 0 0.0 0.0 0.00 0.00 0.00 10 1015.3
20260904111027 73 0 0.0 0.0 0.00 0.00 0.00 10 1015.5
20260904110559 73 0 0.0 0.0 0.00 0.00 0.00 10 1015.7
20260904110142 73 0 0.0 0.0 0.00 0.00 0.00 10 1015.6
20260904105710 73 0 0.0 0.0 0.00 0.00 0.00 10 1015.8
20260904105237 73 0 0.0 0.0 0.00 0.00 0.00 10 1015.6
20260904104817 73 0 0.0 0.0 0.00 0.00 0.00 10 1015.8
20260904104356 72 0 0.0 0.0 0.00 0.00 0.00 10 1015.6
20260904103930 70 0 0.0 0.0 0.00 0.00 0.00 10 1015.8
20260904103505 70 0 0.0 0.0 0.00 0.00 0.00 10 1016.0
20260904103057 69 0 0.0 0.0 0.00 0.00 0.00 10 1016.0
20260904102607 69 0 0.0 0.0 0.00 0.00 0.00 10 1016.1
20260904102132 69 0 0.0 0.0 0.00 0.00 0.00 10 1016.1
20260904101654 70 0 0.0 0.0 0.00 0.00 0.00 10 1016.1
20260904101242 69 0 0.0 0.0 0.00 0.00 0.00 10 1016.0
20260904100804 69 0 0.0 0.0 0.00 0.00 0.00 10 1016.1
20260904100331 68 0 0.0 0.0 0.00 0.00 0.00 10 1016.2
20260904095852 68 0 0.0 0.0 0.00 0.00 0.00 10 1016.1
20260904095417 68 0 0.0 0.0 0.00 0.00 0.00 10 1016.3
20260904095000 68 0 0.0 0.0 0.00 0.00 0.00 10 1016.4
20260904094552 68 0 0.0 0.0 0.00 0.00 0.00 10 1016.4
20260904094116 68 0 0.0 0.0 0.00 0.00 0.00 10 1016.5
20260904093653 67 0 0.0 0.0 0.00 0.00 0.00 10 1016.5
20260904093232 67 0 0.0 0.0 0.00 0.00 0.00 10 1016.6
20260904092757 67 0 0.0 0.0 0.00 0.00 0.00 10 1016.6
20260904092321 67 0 0.0 0.0 0.00 0.00 0.00 10 1016.7
20260904091902 68 0 0.0 0.0 0.00 0.00 0.00 10 1016.8